TimeMST,TemperatureF,Dew PointF,Humidity,Sea Level PressureIn,VisibilityMPH,Wind Direction,Wind SpeedMPH,Gust SpeedMPH,PrecipitationIn,Events,Conditions,WindDirDegrees,DateUTC
12:15 AM,39.2,14.0,36,30.12,10.0,WNW,12.7,-,N/A,,Clear,300,2014-01-16 07:15:00
12:35 AM,39.2,14.0,36,30.12,10.0,West,8.1,-,N/A,,Clear,280,2014-01-16 07:35:00
12:55 AM,41.0,12.2,31,30.11,10.0,WNW,9.2,-,N/A,,Clear,300,2014-01-16 07:55:00
1:15 AM,42.8,12.2,29,30.11,10.0,WNW,24.2,29.9,N/A,,Clear,290,2014-01-16 08:15:00
1:35 AM,44.6,12.2,27,30.12,10.0,WNW,24.2,29.9,N/A,,Clear,300,2014-01-16 08:35:00
1:55 AM,44.6,12.2,27,30.12,10.0,WNW,18.4,-,N/A,,Clear,290,2014-01-16 08:55:00
2:15 AM,41.0,12.2,31,30.14,10.0,WSW,8.1,-,N/A,,Clear,250,2014-01-16 09:15:00
2:35 AM,41.0,12.2,31,30.14,10.0,WSW,16.1,-,N/A,,Clear,240,2014-01-16 09:35:00
2:55 AM,41.0,12.2,31,30.14,10.0,SW,16.1,-,N/A,,Clear,230,2014-01-16 09:55:00
3:15 AM,37.4,12.2,36,30.15,10.0,SE,8.1,-,N/A,,Clear,130,2014-01-16 10:15:00
3:35 AM,42.8,12.2,29,30.15,10.0,SW,5.8,-,N/A,,Clear,230,2014-01-16 10:35:00
3:55 AM,37.4,12.2,36,30.14,10.0,West,8.1,-,N/A,,Clear,260,2014-01-16 10:55:00
4:15 AM,37.4,12.2,36,30.14,10.0,West,16.1,-,N/A,,Clear,280,2014-01-16 11:15:00
4:35 AM,37.4,12.2,36,30.14,10.0,WNW,9.2,-,N/A,,Clear,290,2014-01-16 11:35:00
4:55 AM,37.4,12.2,36,30.13,10.0,WNW,15.0,-,N/A,,Clear,290,2014-01-16 11:55:00
5:15 AM,37.4,12.2,36,30.15,10.0,West,13.8,-,N/A,,Clear,270,2014-01-16 12:15:00
5:35 AM,37.4,12.2,36,30.17,10.0,West,9.2,-,N/A,,Clear,270,2014-01-16 12:35:00
5:55 AM,37.4,10.4,33,30.18,10.0,West,9.2,-,N/A,,Clear,270,2014-01-16 12:55:00
6:15 AM,35.6,10.4,35,30.18,10.0,West,11.5,-,N/A,,Clear,270,2014-01-16 13:15:00
6:25 AM,37.4,10.4,33,30.18,10.0,West,11.5,-,N/A,,Clear,270,2014-01-16 13:25:00
11:15 AM,42.8,19.4,39,30.21,10.0,East,10.4,-,N/A,,Clear,90,2014-01-16 18:15:00
11:35 AM,42.8,19.4,39,30.19,10.0,East,9.2,-,N/A,,Clear,100,2014-01-16 18:35:00
11:55 AM,42.8,17.6,36,30.18,10.0,East,4.6,-,N/A,,Clear,90,2014-01-16 18:55:00
12:15 PM,44.6,17.6,34,30.17,10.0,East,5.8,-,N/A,,Clear,100,2014-01-16 19:15:00
12:35 PM,44.6,17.6,34,30.15,10.0,SE,4.6,-,N/A,,Clear,140,2014-01-16 19:35:00
12:55 PM,46.4,17.6,32,30.14,10.0,Calm,Calm,-,N/A,,Clear,0,2014-01-16 19:55:00
1:15 PM,46.4,17.6,32,30.14,10.0,Calm,Calm,-,N/A,,Clear,0,2014-01-16 20:15:00
1:35 PM,48.2,17.6,30,30.14,10.0,ENE,4.6,-,N/A,,Clear,60,2014-01-16 20:35:00
1:55 PM,48.2,17.6,30,30.14,10.0,ENE,9.2,-,N/A,,Clear,70,2014-01-16 20:55:00
2:15 PM,48.2,17.6,30,30.14,10.0,East,9.2,-,N/A,,Clear,90,2014-01-16 21:15:00
2:35 PM,50.0,17.6,28,30.15,10.0,East,10.4,-,N/A,,Clear,90,2014-01-16 21:35:00
2:55 PM,48.2,17.6,30,30.15,10.0,East,10.4,-,N/A,,Clear,90,2014-01-16 21:55:00
3:15 PM,46.4,17.6,32,30.17,10.0,East,9.2,-,N/A,,Clear,90,2014-01-16 22:15:00
3:35 PM,44.6,17.6,34,30.18,10.0,ESE,8.1,-,N/A,,Clear,110,2014-01-16 22:35:00
3:55 PM,44.6,17.6,34,30.19,10.0,ESE,6.9,-,N/A,,Clear,110,2014-01-16 22:55:00
4:15 PM,42.8,17.6,36,30.19,10.0,East,8.1,-,N/A,,Clear,100,2014-01-16 23:15:00
4:35 PM,42.8,17.6,36,30.20,10.0,East,9.2,-,N/A,,Clear,90,2014-01-16 23:35:00
4:55 PM,41.0,17.6,39,30.21,10.0,East,6.9,-,N/A,,Clear,90,2014-01-16 23:55:00
5:15 PM,37.4,17.6,45,30.22,10.0,East,5.8,-,N/A,,Clear,80,2014-01-17 00:15:00
5:35 PM,35.6,17.6,48,30.23,10.0,East,4.6,-,N/A,,Clear,80,2014-01-17 00:35:00
5:55 PM,35.6,17.6,48,30.24,10.0,NE,4.6,-,N/A,,Clear,50,2014-01-17 00:55:00
6:15 PM,35.6,17.6,48,30.25,10.0,Calm,Calm,-,N/A,,Clear,0,2014-01-17 01:15:00
6:35 PM,35.6,17.6,48,30.26,10.0,Calm,Calm,-,N/A,,Clear,0,2014-01-17 01:35:00
6:55 PM,35.6,17.6,48,30.25,10.0,Calm,Calm,-,N/A,,Clear,0,2014-01-17 01:55:00
7:15 PM,32.0,17.6,55,30.26,10.0,NNE,4.6,-,N/A,,Clear,20,2014-01-17 02:15:00
7:35 PM,30.2,17.6,60,30.27,10.0,North,5.8,-,N/A,,Clear,10,2014-01-17 02:35:00
7:55 PM,32.0,17.6,55,30.27,10.0,North,6.9,-,N/A,,Clear,360,2014-01-17 02:55:00
8:15 PM,30.2,17.6,60,30.27,10.0,North,6.9,-,N/A,,Clear,360,2014-01-17 03:15:00
8:35 PM,30.2,17.6,60,30.28,10.0,North,6.9,-,N/A,,Clear,360,2014-01-17 03:35:00
8:55 PM,30.2,17.6,60,30.29,10.0,NW,3.5,-,N/A,,Clear,320,2014-01-17 03:55:00
9:15 PM,30.2,17.6,60,30.29,10.0,Calm,Calm,-,N/A,,Clear,0,2014-01-17 04:15:00
9:35 PM,28.4,15.8,59,30.29,10.0,West,5.8,-,N/A,,Clear,280,2014-01-17 04:35:00
9:55 PM,30.2,17.6,60,30.29,10.0,NNW,3.5,-,N/A,,Clear,330,2014-01-17 04:55:00
10:15 PM,28.4,15.8,59,30.29,10.0,WSW,3.5,-,N/A,,Clear,250,2014-01-17 05:15:00
10:35 PM,28.4,15.8,59,30.28,10.0,Calm,Calm,-,N/A,,Clear,0,2014-01-17 05:35:00
10:55 PM,28.4,17.6,64,30.29,10.0,WNW,4.6,-,N/A,,Clear,300,2014-01-17 05:55:00
11:15 PM,28.4,17.6,64,30.29,10.0,NNW,4.6,-,N/A,,Clear,340,2014-01-17 06:15:00
11:35 PM,28.4,17.6,64,30.28,10.0,NW,5.8,-,N/A,,Clear,320,2014-01-17 06:35:00
11:55 PM,26.6,17.6,69,30.27,10.0,Calm,Calm,-,N/A,,Clear,0,2014-01-17 06:55:00